Language selection

Weather shortcuts

Eastern Lake Superior: Past 24 Hour Conditions

 

Thunder Bay Airport

02:00 AM EDT 14 June 2024
Disclaimer

This table is a summary of hourly weather conditions for the past 24 hours.
Please note that these observations might not always be representative of weather conditions over their associated marine area.

Date / Time
(EDT)
Wind(knots) Conditions Visibility(km) Pressure(kPa) Air tempC) Relative humidity(%) Dew pointC) Humidex
14 June 2024
2:00 WSW 5 Clear 24 101.3 9 98 9 *
1:00 SW 4 Clear 24 101.3 10 97 9 *
0:00 WNW 2 Clear 24 101.2 11 97 11 *
13 June 2024
23:00 NNW 2 Mainly Clear 24 101.2 13 97 12 *
22:00 NNE 5 Mainly Clear 32 101.0 16 79 12 *
21:00 NW 2 Partly Cloudy 32 101.0 19 63 12 *
20:00 NNW 6 Partly Cloudy 32 100.9 20 56 11 *
19:00 W 5 Mostly Cloudy 32 100.9 20 69 14 *
18:00 WNW 10 Light Rainshower 32 100.8 20 63 13 23
17:00 WNW 10 gusts 17 Mostly Cloudy 32 100.8 18 73 13 *
16:00 WSW 9 Light Rainshower 32 100.7 17 87 15 *
15:00 SW 14 Thunderstorm with light rainshowers 32 100.7 14 90 12 *
14:00 N 10 gusts 16 Mostly Cloudy 32 100.5 20 57 11 22
13:00 W 11 gusts 19 Mostly Cloudy 32 100.4 23 49 12 25
12:00 W 7 Partly Cloudy 32 100.5 21 67 14 24
11:00 W 6 Mostly Cloudy 32 100.4 18 79 14 *
10:00 SW 4 Mostly Cloudy 32 100.4 18 82 15 *
9:00 WSW 3 Partly Cloudy 32 100.3 16 90 14 *
8:00 WSW 4 Partly Cloudy 16 100.3 13 100 13 *
7:00 WNW 5 Fog 0.4 100.3 11 100 11 *
6:00 WSW 4 Mist 2 100.3 11 100 11 *
5:00 SW 6 Mainly Clear 16 100.3 9 100 9 *
4:00 WSW 3 Shallow Fog 24 100.2 10 99 10 *
3:00 SE 2 Partly Cloudy 24 100.3 11 98 11 *
2:00 NE 7 Partly Cloudy 24 100.3 12 98 12 *

Zoom-in to make a selection

Map of Great Lakes - Lake Superior marine weather areas Mid Superior - 45001 East Superior - 45004 West Superior - 45006 Slate Island - 45136 Lake Of the Woods - 45148 Kenora Airport Royal Island Armstrong Airport Caribou Island Marathon Airport Pukaskwa National Park Thunder Bay Airport Welcome Island Little Flatland Island Sault Ste. Marie Airport Wawa Airport
Legend:
buoy Buoy
land station Land Station

Great Lakes - Lake Superior Area

Another Region

Features

New Predicting and Alerting Coastal Flooding Program

Find out about coastal flooding coverage, forecasts and warnings in your region

Date modified: